Weather History for Rexburg, ID

Change the Weather History Date:

Wednesday, February 6, 2013

  Actual Average Record
Temperature  
Mean Temperature 21 °F 20 °F  
Max Temperature 28 °F 30 °F 44 °F (2007)
Min Temperature 13 °F 10 °F -15 °F (2014)
Degree Days  
Heating Degree Days 44 45  
Month to date heating degree days 234 270  
Since 1 July heating degree days 4720 5047  
Cooling Degree Days 0 0  
Month to date cooling degree days 0 0  
Year to date cooling degree days 0 0  
Moisture  
Dew Point 20 °F    
Average Humidity 89    
Maximum Humidity 100    
Minimum Humidity 78    
Precipitation  
Precipitation 0.00 in 0.04 in 0.46 in (1978)
Month to date precipitation T 0.18  
Year to date precipitation 1.13 0.92  
Sea Level Pressure  
Sea Level Pressure 30.07 in    
Wind  
Wind Speed 2 mph (NNW)    
Max Wind Speed 8 mph    
Max Gust Speed 10 mph    
Visibility 5 miles    
Events Fog    
T = Trace of Precipitation, MM = Missing Value Source: NWS Daily Summary

Daily Weather History Graph

Daily Weather History Graph

Search for Another Location

Airport:

Trip Planner

Search our weather history database for the weather conditions in past years. The results will help you decide how hot, cold, wet, or windy it might be!

Date:

Astronomy

Feb. 06, 2013 Rise Set
Actual Time 7:37 AM MST 5:45 PM MST
Civil Twilight 7:07 AM MST 6:15 PM MST
Nautical Twilight 6:33 AM MST 6:49 PM MST
Astronomical Twilight 6:00 AM MST 7:23 PM MST
Moon 4:29 AM MST (2/6) 2:03 PM MST (2/6)
Length of Visible Light 11h 07m
Length of Day
10h 07m
Waning Crescent, 16% of the Moon is Illuminated
Feb 6
Waning Crescent
Feb 10
New
Feb 17
First Quarter
Feb 25
Full
Mar 4
Last Quarter

Hourly Weather History & Observations

Time (MST) Temp. Windchill Dew Point Humidity Pressure Visibility Wind Dir Wind Speed Gust Speed Precip Events Conditions
12:53 AM 19.9 °F - 18.0 °F 92% 29.98 in 4.0 mi Calm Calm - N/A   Clear
12:58 AM 19.4 °F 11.5 °F 17.6 °F 93% 29.90 in 1.8 mi NW 5.8 mph - N/A   Partly Cloudy
1:04 AM 19.4 °F - 17.6 °F 93% 29.90 in 0.2 mi Calm Calm - N/A Fog Light Freezing Fog
1:44 AM 19.4 °F 12.8 °F 17.6 °F 93% 29.91 in 0.5 mi North 4.6 mph - N/A Fog Light Freezing Fog
1:53 AM 19.9 °F 13.4 °F 18.0 °F 92% 29.99 in 0.8 mi North 4.6 mph - N/A   Mist
2:03 AM 19.4 °F 12.8 °F 19.4 °F 100% 29.91 in 0.2 mi NNE 4.6 mph - N/A Fog Light Freezing Fog
2:15 AM 19.4 °F - 17.6 °F 93% 29.92 in 0.5 mi Calm Calm - N/A Fog Light Freezing Fog
2:24 AM 19.4 °F - 19.4 °F 100% 29.92 in 0.2 mi Calm Calm - N/A Fog Light Freezing Fog
2:53 AM 19.9 °F 14.9 °F 19.0 °F 96% 30.01 in 0.2 mi SSE 3.5 mph - N/A Fog Light Freezing Fog
3:08 AM 21.2 °F 13.6 °F 19.4 °F 93% 29.92 in 0.2 mi South 5.8 mph - N/A Fog Light Freezing Fog
3:19 AM 21.2 °F - 19.4 °F 93% 29.92 in 1.0 mi Calm Calm - N/A   Mist
3:27 AM 21.2 °F - 19.4 °F 93% 29.92 in 1.5 mi Calm Calm - N/A   Scattered Clouds
3:45 AM 19.4 °F - 17.6 °F 93% 29.92 in 3.0 mi Calm Calm - N/A   Clear
3:53 AM 19.0 °F 13.9 °F 17.1 °F 92% 30.01 in 4.0 mi NNW 3.5 mph - N/A   Clear
4:10 AM 14.0 °F - 12.2 °F 93% 29.92 in 2.5 mi Calm Calm - N/A   Partly Cloudy
4:46 AM 15.8 °F 8.6 °F 14.0 °F 93% 29.94 in 1.2 mi North 4.6 mph - N/A   Mostly Cloudy
4:53 AM 15.1 °F 7.7 °F 12.0 °F 88% 30.06 in 10.0 mi NNE 4.6 mph - N/A   Scattered Clouds
5:53 AM 14.0 °F - 10.9 °F 88% 30.08 in 10.0 mi Calm Calm - N/A   Partly Cloudy
6:06 AM 14.0 °F - 10.4 °F 86% 29.96 in 10.0 mi Calm Calm - N/A   Mostly Cloudy
6:19 AM 12.2 °F - 10.4 °F 92% 29.96 in 10.0 mi Calm Calm - N/A   Scattered Clouds
6:53 AM 12.9 °F 5.2 °F 10.0 °F 88% 30.12 in 7.0 mi North 4.6 mph - N/A   Mostly Cloudy
7:15 AM 15.8 °F 10.2 °F 12.2 °F 86% 29.99 in 10.0 mi NNE 3.5 mph - N/A   Overcast
7:53 AM 17.1 °F - 14.0 °F 88% 30.12 in 10.0 mi Calm Calm - N/A   Overcast
8:37 AM 19.4 °F - 17.6 °F 93% 30.02 in 1.8 mi Calm Calm - N/A   Overcast
8:46 AM 21.2 °F - 19.4 °F 93% 30.02 in 0.2 mi Calm Calm - N/A Fog Light Freezing Fog
8:53 AM 21.9 °F 17.2 °F 21.9 °F 100% 30.14 in 0.2 mi SSW 3.5 mph - N/A Fog Light Freezing Fog
9:53 AM 23.0 °F 18.4 °F 23.0 °F 100% 30.17 in 0.2 mi Variable 3.5 mph - N/A Fog Light Freezing Fog
10:53 AM 23.0 °F - 21.9 °F 96% 30.18 in 0.2 mi Calm Calm - N/A Fog Light Freezing Fog
11:00 AM 24.8 °F 20.5 °F 21.2 °F 86% 30.06 in 0.8 mi NW 3.5 mph - N/A   Overcast
11:25 AM 24.8 °F 20.5 °F 23.0 °F 93% 30.07 in 1.0 mi North 3.5 mph - N/A   Overcast
11:53 AM 25.0 °F - 23.0 °F 92% 30.20 in 1.2 mi Calm Calm - N/A   Overcast
12:44 PM 24.8 °F - 24.8 °F 100% 30.07 in 0.5 mi Calm Calm - N/A Fog Light Freezing Fog
12:53 PM 25.0 °F - 25.0 °F 100% 30.20 in 0.8 mi Calm Calm - N/A   Overcast
1:30 PM 26.6 °F 21.2 °F 24.8 °F 93% 30.08 in 1.5 mi WSW 4.6 mph - N/A   Overcast
1:39 PM 26.6 °F 21.2 °F 24.8 °F 93% 30.08 in 3.0 mi WSW 4.6 mph - N/A   Overcast
1:53 PM 25.0 °F 19.3 °F 24.1 °F 96% 30.20 in 6.0 mi WSW 4.6 mph - N/A   Overcast
2:27 PM 26.6 °F 22.6 °F 24.8 °F 93% 30.07 in 7.0 mi WSW 3.5 mph - N/A   Overcast
2:53 PM 26.1 °F 21.9 °F 25.0 °F 96% 30.20 in 9.0 mi SW 3.5 mph - N/A   Overcast
3:15 PM 26.6 °F 21.2 °F 24.8 °F 93% 30.09 in 9.0 mi West 4.6 mph - N/A   Overcast
3:53 PM 26.1 °F - 24.1 °F 92% 30.23 in 10.0 mi Calm Calm - N/A   Overcast
4:27 PM 26.6 °F - 24.8 °F 93% 30.10 in 10.0 mi Calm Calm - N/A   Overcast
4:53 PM 27.0 °F - 24.1 °F 89% 30.25 in 10.0 mi Calm Calm - N/A   Overcast
5:53 PM 27.0 °F 19.5 °F 24.1 °F 89% 30.27 in 10.0 mi SW 6.9 mph - N/A   Overcast
6:53 PM 28.0 °F - 23.0 °F 81% 30.29 in 10.0 mi Calm Calm - N/A   Overcast
7:53 PM 28.0 °F - 23.0 °F 81% 30.28 in 10.0 mi Calm Calm - N/A   Overcast
8:53 PM 27.0 °F 21.6 °F 24.1 °F 89% 30.27 in 10.0 mi East 4.6 mph - N/A   Overcast
9:53 PM 27.0 °F 23.0 °F 24.1 °F 89% 30.28 in 10.0 mi ENE 3.5 mph - N/A   Overcast
10:53 PM 27.0 °F - 23.0 °F 85% 30.28 in 10.0 mi Calm Calm - N/A   Overcast
11:53 PM 27.0 °F 21.6 °F 23.0 °F 85% 30.29 in 10.0 mi East 4.6 mph - N/A   Overcast